Theta_e
315 315 315 315 316 317 317 316 316 316 317 316 315 316 315 315 314 305 299 305 308 317 318 306 306 304 303 297 297 298 289 288 291 294 295 303 303 315 316 312 314 313 313 317 329
315 315 315 315 315 315 315 316 316 316 316 317 315 315 314 313 304 300 310 316 320 320 308 300 298 300 295 295 294 292 287 289 296 297 296 301 301 308 310 311 311 310 313 313 321
315 316 316 316 315 315 314 315 316 316 316 316 316 315 314 311 298 300 320 319 321 321 309 304 300 298 291 290 292 291 290 295 297 299 300 300 301 307 307 305 310 304 305 311 311
317 317 317 317 316 315 314 314 315 316 315 314 315 313 314 307 284 310 331 329 323 318 312 301 296 293 289 289 291 287 294 296 297 301 300 300 303 304 308 311 312 308 308 307 308
317 317 317 317 317 316 315 315 314 314 314 314 314 313 307 297 297 306 327 334 319 315 307 297 294 293 291 291 290 290 293 295 298 298 298 301 303 305 306 311 314 310 309 307 305
317 317 316 316 316 315 316 315 314 314 313 314 313 313 304 294 304 312 323 319 317 309 301 296 295 297 295 295 291 292 294 296 296 296 298 297 298 304 306 311 310 309 307 306 307
316 315 315 315 315 315 315 315 314 313 312 314 313 310 303 299 310 317 317 310 312 306 300 300 299 300 297 295 297 296 291 292 295 295 295 298 294 298 305 310 309 312 313 307 307
316 316 315 315 315 315 316 314 312 312 313 314 314 309 298 310 309 307 310 304 307 307 301 302 300 298 296 298 298 291 291 285 294 295 297 299 290 298 304 305 307 309 308 306 306
315 314 314 314 315 315 315 313 312 313 315 314 307 304 297 314 310 313 309 305 304 306 306 305 300 296 296 292 288 288 284 285 291 295 296 295 291 299 302 302 302 303 304 304 304
314 313 313 314 313 314 314 312 311 314 313 312 310 298 303 303 308 310 310 309 304 301 299 298 295 292 289 288 283 286 286 288 289 293 294 291 293 297 299 301 300 301 302 303 304
313 313 313 313 313 313 310 301 304 301 305 301 303 301 304 310 311 303 307 306 304 299 293 296 290 287 291 293 293 292 290 289 292 296 293 292 292 296 296 297 298 299 300 301 303
313 314 314 313 313 312 309 297 304 305 298 306 307 306 308 309 305 303 308 302 299 292 295 292 288 294 296 296 294 293 290 290 293 296 293 292 291 294 296 297 298 299 300 301 306
313 314 312 313 312 306 300 302 307 306 296 302 307 307 307 308 305 305 305 302 296 293 293 290 294 299 297 294 293 291 289 290 291 294 294 291 289 292 296 298 299 299 300 301 306
313 313 312 312 305 303 302 309 309 306 291 298 303 307 308 306 300 308 308 303 298 294 294 292 297 297 295 294 294 288 295 295 294 290 285 292 282 290 293 294 298 299 299 303 305
312 313 312 311 303 300 308 307 305 304 281 304 303 311 305 301 301 303 307 303 297 296 295 292 295 293 292 294 296 292 297 295 293 288 286 288 284 288 292 292 295 297 300 300 302
311 312 312 305 305 305 309 308 305 292 284 300 303 300 298 299 301 303 303 304 303 297 296 294 299 297 296 298 298 298 294 291 289 286 281 286 285 285 289 292 294 297 299 301 302
311 311 309 309 300 306 306 304 291 286 302 299 296 298 297 295 298 299 297 296 293 288 288 292 293 297 300 295 297 293 287 280 279 280 280 289 286 288 294 296 298 298 299 300 302
310 309 306 308 307 307 305 298 286 296 299 305 299 297 293 295 296 297 295 292 295 294 289 286 285 296 301 297 292 291 288 282 278 279 282 289 284 290 297 298 300 301 301 300 299
308 302 301 305 308 305 300 290 291 298 302 298 298 293 292 296 296 296 294 293 295 294 289 288 291 299 301 301 298 292 288 293 286 286 282 284 289 295 298 298 299 299 299 299 299
302 299 301 308 309 305 297 293 297 305 302 301 294 296 291 294 293 293 293 298 298 298 295 293 288 297 300 301 301 295 297 287 287 281 278 284 286 287 293 295 297 298 299 298 297
297 296 305 311 310 301 292 295 301 307 303 298 295 295 296 294 295 295 297 301 303 299 297 293 290 290 295 293 291 293 291 291 290 286 280 279 284 294 296 294 293 293 292 293 294
296 289 307 310 298 297 294 299 302 304 305 301 299 298 295 294 293 294 294 299 303 302 295 296 290 286 289 296 298 294 291 290 285 283 284 283 285 297 296 294 294 294 295 294 294
293 293 305 309 293 294 298 300 304 302 301 300 298 299 298 293 289 295 296 301 302 300 296 296 288 283 285 288 294 292 294 290 288 287 283 280 283 298 298 297 295 295 295 296 296
295 291 298 302 301 295 293 297 298 304 302 301 298 299 295 292 292 292 294 299 302 302 305 300 290 287 283 285 290 289 293 294 292 284 283 284 287 293 295 294 293 293 294 296 295
295 294 297 291 295 296 296 296 296 296 301 299 296 296 294 288 289 289 292 294 298 300 297 292 287 289 291 293 292 291 292 293 292 291 287 287 286 289 291 292 292 294 295 295 294
292 297 298 296 298 297 297 295 294 297 296 295 294 295 293 290 289 288 290 289 289 294 292 292 285 288 287 292 291 289 291 293 293 293 294 293 292 292 292 294 293 294 294 293 294
302 302 298 294 293 292 294 295 294 298 297 298 296 293 292 293 294 293 293 292 292 289 288 288 286 284 282 289 289 284 290 291 292 294 294 290 294 293 293 293 292 292 293 293 294
Wind_Speed
17 17 17 17 16 15 15 14 14 14 11 11 12 12 12 12 12 2 9 13 9 10 4 1 5 5 3 2 3 4 2 8 8 8 4 7 5 7 7 5 11 6 5 4 11
18 17 17 16 16 16 16 14 14 13 14 11 11 11 11 12 5 11 15 12 17 3 4 5 6 8 4 5 3 5 5 7 5 5 4 8 6 7 8 13 19 13 5 9 8
17 17 17 17 16 15 16 16 14 14 13 13 10 10 11 9 5 10 6 21 15 10 5 4 4 5 1 3 5 6 9 8 9 8 7 7 11 3 4 6 9 5 7 4 6
17 18 18 17 17 17 16 16 15 15 14 12 11 8 9 3 4 2 3 12 18 8 3 6 4 6 5 7 5 2 6 7 6 13 6 9 8 7 10 18 11 1 7 5 9
18 19 19 18 18 17 16 17 17 15 13 12 9 4 3 2 14 6 3 7 13 9 7 7 6 6 7 5 3 6 10 6 12 11 11 6 11 13 15 10 12 11 3 3 4
18 19 20 21 20 20 16 15 15 15 15 11 6 1 1 4 6 3 9 12 12 9 7 6 9 8 5 4 9 6 12 14 10 10 12 8 12 7 6 16 18 8 9 8 7
20 21 21 21 21 20 19 17 13 15 15 10 6 5 4 19 2 5 8 6 8 9 9 10 6 9 7 4 6 10 5 4 10 8 9 6 9 10 15 24 6 27 18 10 9
19 18 22 21 20 19 18 17 18 15 14 6 9 5 10 6 5 4 6 2 5 8 3 4 1 3 2 2 6 3 6 4 15 8 10 11 11 16 16 16 26 27 15 13 9
21 20 21 21 21 20 20 16 19 12 7 10 6 4 12 7 5 7 10 6 9 6 9 5 5 7 1 4 4 2 5 8 15 13 7 10 9 14 9 10 13 11 13 11 9
20 21 22 21 21 18 17 18 8 1 9 5 2 1 6 4 4 6 11 10 7 7 2 7 7 5 1 3 5 6 2 4 5 4 7 6 7 9 5 10 11 10 8 9 9
21 20 21 24 20 17 6 5 2 1 4 12 9 6 4 3 4 5 7 8 5 4 6 3 2 7 9 9 4 3 3 5 6 6 4 7 9 14 7 4 6 7 7 7 4
22 22 22 21 22 19 4 4 7 1 7 18 12 8 7 3 4 6 8 6 6 7 3 3 5 9 4 6 6 5 3 7 8 5 4 7 12 8 8 6 7 8 7 8 6
20 21 23 24 27 2 5 9 6 4 3 6 9 7 7 9 7 8 9 6 3 4 5 6 9 3 5 6 5 6 4 5 7 3 2 2 7 3 3 1 3 2 2 5 9
21 22 23 23 2 2 6 5 10 3 3 6 4 8 6 7 4 7 9 7 3 8 4 5 10 10 6 6 6 6 7 6 6 3 2 3 3 5 3 3 2 6 5 10 10
23 23 21 10 7 4 3 3 6 2 3 3 4 2 7 9 4 5 6 4 8 5 6 7 3 3 3 5 6 11 5 4 3 5 4 5 6 8 4 1 2 3 5 5 5
24 23 19 3 4 12 11 8 3 4 7 2 6 6 5 4 3 1 5 3 5 4 3 7 4 4 7 4 3 8 5 8 5 4 3 4 5 6 4 5 1 1 4 7 7
27 25 16 5 7 4 4 2 3 5 3 5 6 7 7 6 6 4 7 7 7 3 4 2 4 4 4 2 5 6 7 2 3 4 6 1 3 9 3 4 9 10 6 6 7
29 30 8 8 10 9 2 4 5 6 5 3 4 6 8 8 7 8 7 5 3 4 0 4 3 2 1 3 4 2 6 7 7 5 4 4 5 6 5 5 9 8 10 7 7
27 3 4 6 12 3 5 3 7 6 4 2 2 4 5 6 6 5 9 10 6 9 8 4 3 2 4 2 4 2 3 3 7 2 3 3 1 5 6 5 8 10 7 9 9
9 5 5 1 15 4 4 6 6 5 3 2 3 2 5 4 8 8 9 4 5 7 3 5 3 2 3 1 5 4 6 4 4 4 3 3 3 6 6 8 6 5 8 3 6
3 6 4 8 4 4 4 7 6 9 7 5 6 4 2 3 3 4 7 3 1 2 5 4 4 3 0 1 4 2 2 5 6 4 6 1 5 6 8 4 4 5 4 4 7
4 5 1 3 2 2 4 6 5 9 6 3 3 3 3 3 1 3 4 1 2 2 2 1 5 3 6 2 3 3 3 3 5 4 2 5 5 2 8 2 4 8 6 5 6
6 5 6 3 4 4 6 5 2 2 6 4 4 3 1 3 3 3 5 5 2 3 6 5 2 2 8 6 4 2 3 3 4 3 8 7 6 5 6 6 6 11 8 6 4
2 5 5 3 2 2 4 5 2 4 6 5 3 5 4 3 5 3 3 5 5 5 10 6 3 6 7 5 4 2 3 3 4 3 3 5 7 6 4 8 5 7 5 6 3
1 4 1 4 3 6 3 5 3 3 3 5 5 3 6 4 3 3 3 4 5 9 5 4 3 2 3 1 2 3 4 5 6 7 6 5 6 6 5 8 6 5 3 2 2
2 3 5 4 6 5 3 4 4 5 3 2 5 3 5 5 3 6 4 1 2 6 3 4 2 2 2 1 3 5 7 9 7 9 12 11 7 4 4 7 6 3 1 3 3
2 3 2 4 5 3 2 5 8 2 7 5 8 6 5 4 4 5 3 4 5 3 2 3 4 3 4 2 4 5 13 12 10 10 9 10 8 8 4 6 5 2 0 1 5
Wind_Direction
340 341 341 339 337 335 334 335 336 339 337 323 318 316 316 314 313 285 239 223 195 218 108 38 90 127 100 197 202 124 171 215 198 180 255 308 339 200 62 348 335 285 169 191 130
338 339 336 335 334 332 329 328 328 331 334 330 318 317 320 321 274 235 236 204 212 229 184 127 132 138 159 189 192 148 188 218 188 217 218 305 331 21 15 315 296 306 51 78 97
334 332 333 332 331 328 325 323 323 324 331 334 321 324 325 334 285 248 181 207 192 166 140 136 103 117 181 120 204 192 226 219 264 252 263 290 293 158 143 296 257 277 318 93 127
331 328 329 327 327 328 324 320 319 319 320 326 321 318 321 329 278 306 44 180 186 172 117 135 136 141 181 199 208 258 234 217 219 244 245 237 260 291 162 240 250 11 304 338 131
324 323 324 323 322 325 321 319 314 311 310 309 313 321 22 334 253 269 317 153 155 153 177 155 143 153 172 199 140 223 240 233 234 241 231 221 218 226 244 237 265 310 258 247 270
318 318 320 320 321 319 314 309 305 304 305 293 286 206 137 270 248 213 112 130 151 155 174 151 185 193 191 208 174 234 229 249 255 250 240 213 230 223 273 294 273 253 246 219 208
320 320 318 317 316 316 313 306 301 302 298 287 209 180 247 241 72 43 136 161 165 171 169 210 196 174 153 244 240 204 256 281 255 236 241 174 283 198 206 228 78 273 263 231 224
320 316 316 314 313 312 309 308 306 300 290 240 171 168 249 250 264 214 183 234 181 209 230 262 326 309 213 313 312 199 129 243 256 202 248 155 258 245 221 185 195 204 248 250 235
321 318 317 315 314 314 309 305 302 286 235 164 139 147 265 301 243 232 163 202 167 222 235 274 152 218 116 144 344 345 211 205 263 194 197 164 221 247 217 191 213 212 214 212 213
321 321 319 314 312 310 314 312 284 95 129 157 201 350 263 247 199 207 187 189 186 183 200 209 210 195 101 105 218 239 282 256 237 221 172 174 229 245 232 178 214 233 229 210 204
321 318 311 316 314 311 330 353 77 177 232 200 190 231 277 292 240 210 163 150 191 210 190 203 149 220 223 206 198 235 232 256 247 240 173 223 216 243 207 199 210 234 225 211 189
316 309 314 314 314 309 189 223 230 180 288 225 232 260 278 59 301 261 132 166 160 204 176 358 246 245 221 252 217 232 265 287 287 271 115 292 251 236 156 197 200 221 216 214 111
308 310 320 319 318 151 200 228 266 18 265 275 187 203 221 151 209 244 148 181 178 205 191 177 246 336 204 274 299 279 221 242 212 12 216 73 350 29 147 79 30 325 81 96 133
312 312 322 328 358 312 243 216 236 172 24 267 214 248 177 186 242 204 183 152 220 206 195 228 264 240 262 250 177 270 271 200 177 114 206 58 275 322 44 351 89 239 157 146 142
315 310 318 319 283 256 233 22 126 89 343 192 188 144 157 160 151 224 161 119 194 208 119 242 260 327 276 220 167 229 187 131 75 88 79 346 82 271 339 316 323 167 150 117 83
311 305 314 308 239 238 311 317 109 40 253 253 146 165 132 186 190 94 148 139 178 211 224 231 252 230 218 268 235 147 86 49 46 74 52 254 123 287 234 191 138 321 148 137 128
311 304 297 224 230 132 255 31 60 199 298 194 183 158 177 174 225 184 161 175 182 160 241 276 243 261 214 232 13 71 69 360 1 17 204 13 64 233 294 182 168 167 168 166 155
311 307 255 201 220 282 43 65 216 234 233 290 160 138 178 167 222 183 150 190 253 122 56 163 312 185 246 153 161 79 146 155 197 185 236 269 225 254 303 133 121 152 172 177 184
317 304 258 245 182 180 91 182 217 215 242 178 307 153 206 214 181 149 177 199 199 172 176 169 255 353 48 92 122 166 68 177 98 28 85 241 256 344 33 84 146 170 174 202 214
318 308 257 185 154 118 104 237 236 233 270 201 172 73 177 234 168 156 166 188 171 184 165 195 151 326 319 100 21 130 167 62 11 145 219 281 250 190 206 184 200 206 211 273 35
322 320 278 152 153 71 192 229 266 273 238 177 166 164 147 271 127 150 155 103 228 90 129 132 132 260 61 100 178 27 130 67 100 132 160 221 258 220 186 203 220 21 61 123 117
353 313 255 352 119 174 204 208 250 273 291 185 120 96 140 24 89 137 134 110 31 49 117 351 121 181 213 279 348 139 177 143 151 223 207 155 259 20 143 136 113 106 86 80 84
316 269 304 122 224 263 277 266 262 327 292 210 131 135 139 99 99 82 89 17 13 107 168 183 70 71 344 2 16 118 72 128 125 83 180 163 248 229 214 113 129 128 110 90 54
303 311 309 18 357 289 354 270 229 227 249 338 86 88 93 72 24 86 81 17 0 48 58 83 124 162 185 188 152 182 172 138 113 102 231 222 248 281 323 125 132 98 108 120 121
239 269 350 325 327 317 288 277 276 225 133 11 40 82 135 110 62 78 48 6 35 358 39 84 171 165 216 190 198 232 252 227 182 192 190 236 207 279 170 153 127 111 100 79 347
282 322 343 283 281 290 280 320 276 279 356 27 112 64 79 118 169 177 137 81 104 2 64 360 177 129 270 309 229 256 249 239 241 221 212 223 257 164 116 92 89 92 353 346 327
322 315 300 283 319 347 305 309 288 243 19 77 135 91 71 145 134 152 169 161 152 120 100 79 120 93 248 353 321 272 236 232 230 227 206 216 202 158 159 147 160 202 220 309 309